sat.trackr.live / text

‹ back to catalog

STARLINK-1500

NORAD 45744 · 2020-038Q

PAYLOAD ACTIVE UNKNOWN

§ Identity

Operator
Country
US
Launch date
2020-06-13
Launch site
AFETR
Launch vehicle
Mass (kg)
RCS (m²)

Purposes: comms

External: N2YO · Heavens-Above · Gunter

§ Orbital elements

Epoch: 2026-05-25T03:46:42.204288Z

Period
93.60 min
Inclination
53.0338°
Eccentricity
0.0002160
Mean motion
15.38482116 rev/d
Perigee alt
449.1 km
Apogee alt
452.1 km
Semi-major
6,828.7 km
B*
4.9932e-4
RAAN
192.9569°
Arg perigee
97.4643°
Mean anomaly
262.6605°
Rev number
32,857

§ Raw data

STARLINK-15001 45744U 20038Q   26145.15743292  .00018897  00000+0  49932-3 0  99902 45744  53.0338 192.9569 0002160  97.4643 262.6605 15.38482116328572

JSON: /api/v1/satellites/45744 · /tle

For live sub-satellite position, see the globe view (requires WebGL).

§ Visibility from observer

Set your observer location to see the next 7 days of passes ≥ 10°. The values pass through the URL so the page stays shareable.

No JS? Fill the form by hand. The geolocation button needs JavaScript.